Temp
17 18 18 18 18 18 18 18 18 18 18 18 18 19 19 19 19 19 19 19 19 19 19 19 20 20 20 20 20 21 21 21 21 20 19 18 18 18 18 19 19 20 20 20 21 21 21 21 21 20 22 21 19 18 19 17 17 19 20 20 20 19 18 19 19 18 18 20 18 15 13 16 17 15 14 13 14 14 13 13 13 13 11 9 9 9 9 9
18 18 18 18 18 18 18 18 18 18 18 18 18 19 19 19 19 19 19 19 19 19 19 19 20 20 20 20 20 20 20 20 20 19 18 18 18 18 19 19 20 20 20 20 20 20 20 21 18 19 21 21 18 18 20 17 17 20 19 19 20 19 19 18 19 18 17 19 18 15 13 14 16 15 14 15 15 13 14 14 13 14 13 9 7 7 8 7
18 18 18 18 18 18 18 18 18 18 18 18 18 19 19 19 19 19 19 19 19 19 19 19 19 20 20 20 20 20 20 20 20 19 18 18 18 18 19 19 20 20 20 20 20 19 20 20 18 19 21 21 19 18 20 18 18 19 18 20 21 19 18 17 17 17 16 17 17 16 13 13 14 14 14 16 16 14 14 15 14 14 15 12 7 5 6 6
18 18 18 18 18 18 18 18 18 18 18 18 18 18 19 19 19 19 19 19 19 19 19 19 20 20 20 20 20 20 20 20 20 18 18 18 18 18 19 20 20 20 20 20 20 19 19 18 17 19 21 21 18 18 20 19 18 18 17 21 20 17 18 18 16 16 15 14 16 16 13 14 14 13 15 15 16 16 16 16 16 16 16 14 8 5 6 6
18 18 18 18 18 18 18 18 18 18 18 18 18 19 19 19 19 19 19 19 20 19 19 19 20 20 20 20 20 20 20 21 19 18 18 18 18 19 19 20 20 20 20 20 20 19 19 18 18 20 21 21 19 19 20 17 17 18 18 19 17 15 18 18 15 14 14 13 14 15 14 15 13 13 14 15 16 17 17 16 16 17 16 13 9 5 5 5
18 18 18 18 18 18 18 18 18 18 19 19 19 19 19 19 19 19 19 19 20 19 19 19 20 20 20 20 20 20 20 21 19 18 19 18 19 19 19 19 20 20 20 20 19 19 19 18 19 21 20 20 20 20 19 16 16 19 19 17 15 15 18 17 14 14 13 14 16 15 15 13 14 15 13 13 16 16 16 15 15 15 12 10 7 5 6 6
18 18 18 18 18 18 18 18 18 19 19 19 19 19 19 19 19 20 19 19 19 19 19 19 20 20 20 20 20 19 19 20 18 18 19 19 19 19 19 19 19 20 20 19 19 19 20 20 21 20 20 21 19 19 18 16 16 18 19 18 15 14 15 15 13 13 13 15 16 13 14 14 15 16 11 13 15 14 14 11 9 8 7 7 7 6 7 6
18 18 18 18 18 19 19 19 19 19 19 19 19 19 19 19 20 20 19 20 19 19 20 19 20 20 20 20 20 20 19 19 18 18 19 19 19 19 19 19 19 20 19 18 17 18 19 20 20 18 20 20 18 18 17 17 18 18 18 17 15 13 14 13 12 13 13 14 13 12 15 15 14 13 12 15 15 13 13 10 7 7 7 8 9 8 6 5
18 18 18 18 19 19 19 19 19 19 19 19 19 19 19 19 19 20 19 19 19 20 19 20 20 19 20 19 18 20 20 18 18 19 19 19 19 19 19 19 19 19 19 17 17 18 19 19 19 18 20 19 17 18 16 18 19 17 17 16 15 15 14 13 13 13 13 13 12 14 16 15 12 11 14 17 14 12 11 11 9 9 11 10 10 8 6 6
18 18 18 18 18 19 19 19 19 19 19 19 19 19 19 19 19 19 19 19 19 19 19 20 20 19 20 19 18 20 19 18 19 19 19 19 19 19 20 19 19 19 18 18 17 17 17 18 17 16 18 18 17 17 15 17 17 15 15 15 15 15 14 13 14 14 13 13 13 15 16 14 11 12 17 16 12 11 13 12 9 10 12 9 8 7 5 6
18 18 18 18 18 19 19 19 19 19 19 19 19 19 20 19 20 19 19 19 19 19 19 19 20 20 20 19 19 20 19 19 19 19 19 19 19 19 19 19 18 19 18 17 17 16 16 17 15 15 18 18 17 16 15 15 15 14 15 16 16 15 15 14 14 14 13 14 13 14 15 14 12 13 17 15 11 12 13 13 10 10 11 8 8 7 5 5
18 18 18 18 19 19 19 19 19 19 19 19 20 20 20 20 20 20 19 19 19 19 19 19 19 20 19 18 19 20 19 19 19 18 19 19 19 19 18 18 18 18 18 17 17 17 17 16 16 18 18 17 17 17 16 13 13 15 15 17 17 16 17 14 12 13 13 15 13 13 16 16 15 16 16 14 12 12 13 13 11 9 10 9 8 7 5 5
18 18 18 18 18 19 19 19 19 19 19 19 19 19 20 20 20 20 20 20 19 19 19 19 19 19 19 19 19 19 19 19 19 19 19 19 19 18 18 18 18 18 18 18 17 17 17 17 17 17 16 16 18 16 15 13 14 16 14 16 17 17 18 13 11 12 13 14 12 13 18 18 17 17 15 11 10 12 14 13 11 10 9 9 7 7 6 4
18 18 18 18 19 19 19 19 20 20 20 20 20 20 20 20 20 20 20 20 20 19 19 19 20 19 19 19 19 18 19 18 19 18 18 18 19 19 19 18 18 18 18 18 18 18 17 17 16 16 14 15 16 14 15 15 15 16 15 15 14 16 18 14 11 13 15 13 11 14 17 17 18 17 13 9 9 12 14 13 11 10 9 8 7 6 6 3
18 18 18 19 19 19 19 20 20 20 20 20 20 20 20 20 20 20 20 20 20 20 19 19 19 19 19 19 19 18 19 19 18 17 17 18 18 18 18 19 18 18 18 18 18 18 17 17 17 17 15 13 14 16 17 17 15 15 17 17 14 15 17 16 12 12 15 13 11 15 16 16 16 14 11 9 10 12 14 13 10 9 8 8 7 5 5 3
18 18 18 19 19 20 20 20 20 20 20 20 20 21 21 21 20 20 20 20 20 19 19 19 19 19 20 20 19 19 18 18 17 17 17 17 17 17 17 18 18 18 18 17 18 17 17 17 15 13 15 15 15 17 17 17 17 14 15 18 16 15 16 16 13 11 12 14 13 14 16 16 16 13 10 9 9 11 12 11 9 8 7 6 6 5 5 4
18 19 19 19 20 20 20 20 20 20 20 20 20 20 20 20 20 20 20 20 20 19 19 19 19 19 20 19 19 19 17 16 17 17 17 17 17 17 17 17 16 16 17 17 18 17 17 16 14 13 15 15 15 17 17 17 18 16 14 15 15 15 14 15 16 12 11 13 14 14 13 14 15 13 10 8 7 8 11 11 9 8 6 5 5 5 5 4
19 19 20 20 20 20 21 21 20 20 21 20 20 20 20 20 20 20 20 19 19 19 20 19 19 19 20 19 18 17 16 16 16 17 17 17 17 17 17 16 14 15 17 17 18 17 16 16 15 16 16 15 15 17 18 17 17 17 15 15 15 14 13 14 16 13 11 13 13 13 13 13 13 10 8 6 5 7 9 8 8 7 5 5 5 4 4 4
19 20 20 20 20 20 21 21 20 20 21 21 20 20 20 20 20 20 19 19 19 19 19 18 18 19 19 17 15 16 16 16 16 17 16 17 16 16 16 15 14 16 18 18 18 16 16 16 16 17 17 17 17 16 17 17 15 15 15 14 15 14 13 14 14 12 10 13 13 13 13 12 10 7 6 5 4 6 6 6 6 5 5 5 4 4 3 3
20 20 20 20 20 20 21 21 20 20 21 22 21 20 21 20 20 20 19 18 16 15 16 16 15 17 17 16 15 16 16 16 17 16 16 16 16 16 15 15 16 18 18 18 18 15 14 17 17 17 17 16 15 14 14 13 12 13 14 14 14 13 13 14 14 11 9 13 13 11 12 10 7 5 4 4 4 5 5 5 5 5 5 4 4 3 3 2
20 20 20 20 21 21 21 21 20 20 20 21 21 20 19 18 19 19 17 16 13 11 13 14 12 14 15 15 15 14 15 17 17 15 16 16 15 17 17 16 18 18 16 14 15 14 14 17 17 15 14 12 12 11 11 12 12 13 14 14 13 13 13 13 12 10 9 12 12 10 11 8 5 5 4 4 4 4 4 5 5 4 4 4 3 3 2 2
20 20 20 21 21 21 21 20 20 20 20 21 20 16 15 15 15 15 15 17 15 11 12 12 12 14 15 14 14 14 15 17 17 16 15 16 16 17 16 16 17 17 14 13 15 16 16 17 15 12 10 10 11 10 11 13 13 13 13 13 13 12 13 12 10 9 10 12 12 10 11 8 5 5 5 4 4 3 3 3 3 4 3 3 3 2 2 1
20 20 20 21 21 21 21 20 20 20 20 20 18 14 13 14 14 13 14 18 18 14 14 15 15 16 16 15 15 14 16 16 16 16 14 15 16 15 15 16 16 16 15 15 16 16 17 16 12 9 10 11 13 12 12 13 13 13 13 13 14 12 12 14 12 10 10 11 11 10 10 8 6 6 5 5 4 3 3 3 3 2 2 2 2 2 2 1
20 20 21 21 21 21 21 20 20 19 18 18 16 15 14 15 14 14 14 16 17 16 15 14 14 15 16 16 15 15 16 14 15 15 14 14 15 14 14 14 15 16 14 14 14 15 16 14 9 9 11 12 14 13 13 13 13 13 13 13 14 13 12 13 11 10 11 10 9 10 11 9 6 5 5 5 4 3 3 3 2 2 2 2 2 1 1 0
20 20 20 20 20 21 20 20 19 18 17 17 16 15 14 15 14 14 16 17 18 17 15 14 14 15 15 15 15 14 14 14 14 14 13 13 13 14 14 12 14 17 15 13 13 15 15 11 8 12 13 12 13 14 13 13 13 13 13 12 12 12 12 11 11 11 12 11 10 10 13 10 6 5 5 4 4 3 3 2 2 1 1 1 1 0 0 -0
20 20 20 20 20 20 20 20 18 17 17 16 15 15 14 15 14 14 16 18 19 17 17 17 16 16 16 15 13 12 15 16 14 12 12 12 12 13 14 13 13 15 14 13 13 13 13 10 10 13 13 13 13 13 13 12 13 14 12 10 10 11 11 11 11 11 12 12 10 10 12 11 7 5 4 4 3 3 2 2 1 1 1 1 0 -0 -0 -1
20 20 20 20 20 20 20 19 18 17 17 16 15 15 15 14 14 14 17 19 19 16 17 18 17 17 16 13 11 13 17 16 14 13 12 12 12 12 15 15 14 14 12 12 15 14 12 12 12 12 13 13 13 13 12 11 13 14 10 8 10 10 10 10 10 10 10 10 9 9 11 11 8 6 4 3 3 3 2 2 1 0 0 -0 -0 -1 -1 -1
20 19 19 19 19 19 19 18 18 16 16 16 15 15 15 14 14 15 18 20 18 16 16 17 17 17 15 12 12 15 16 14 15 15 11 12 12 12 15 15 14 14 11 12 17 14 11 13 13 12 13 13 13 13 11 10 13 12 8 8 9 9 9 9 9 9 9 8 10 9 9 10 9 5 4 4 3 3 2 1 1 0 0 -0 -1 -1 -1 -2
19 19 19 19 19 19 18 18 17 15 15 15 14 14 14 14 14 16 20 19 17 16 16 16 18 16 13 13 14 14 14 13 15 14 11 12 13 13 14 12 12 13 10 11 16 14 11 11 10 11 13 12 12 11 9 10 12 9 7 8 8 7 8 8 8 9 8 8 10 10 9 11 10 4 3 5 4 3 2 1 1 0 -0 -0 -1 -1 -1 -2
19 19 19 19 19 18 18 18 16 15 15 15 15 14 13 14 16 19 20 18 16 16 15 16 16 13 12 15 16 14 14 14 12 12 12 13 13 12 10 9 11 13 12 12 14 13 10 8 8 10 10 10 10 9 7 8 9 8 8 10 10 8 7 7 7 8 9 10 10 9 8 10 10 6 4 4 4 3 2 1 0 0 -0 -0 -1 -1 -1 -1
19 19 18 18 18 18 18 17 16 16 15 15 14 13 14 16 18 19 19 16 16 16 15 15 14 12 12 13 15 14 13 13 12 12 13 12 12 12 11 11 12 14 14 14 14 13 11 10 9 9 8 8 9 10 8 6 7 8 10 11 11 11 9 9 8 8 10 11 10 8 7 9 10 7 4 3 2 2 1 0 0 -0 -0 -1 -1 -1 -1 -1
19 18 18 18 18 17 17 16 16 16 15 15 13 13 17 19 18 17 16 16 16 15 14 13 12 13 12 11 13 12 12 13 12 12 12 11 11 10 10 11 11 13 15 13 12 13 13 12 10 9 8 7 10 12 10 8 9 10 11 11 12 11 11 11 11 10 11 11 9 7 8 9 8 4 2 1 1 1 1 0 -0 -0 -0 -1 -1 -1 -1 -1
19 18 18 18 17 17 16 16 16 16 15 14 14 15 19 20 17 15 14 16 16 13 12 12 12 11 11 13 14 11 11 13 12 11 11 11 12 10 9 9 9 12 14 12 11 12 14 13 10 11 10 8 9 12 11 11 11 10 10 10 11 11 10 10 10 9 10 10 8 7 8 9 7 3 1 1 1 1 0 -0 -0 -0 -0 -0 -1 -1 -1 -2
18 18 18 17 17 17 17 16 16 15 14 14 16 19 20 19 16 13 14 15 13 12 11 11 11 12 12 14 13 10 12 13 11 12 12 12 13 12 11 10 9 11 12 12 11 11 13 14 12 12 11 9 10 10 9 10 10 9 8 9 10 11 10 10 10 9 9 9 8 8 8 8 6 3 1 1 1 0 0 -0 -0 -0 -0 -0 -1 -1 -2 -2
18 18 18 17 17 17 17 16 16 15 14 16 18 19 18 16 14 13 14 13 11 11 11 9 11 14 15 13 11 10 12 13 11 12 13 12 12 11 11 11 9 10 11 12 10 9 11 13 12 10 8 9 10 8 7 9 10 8 7 9 10 10 10 9 9 8 7 7 7 7 6 4 3 2 1 0 0 -0 0 -0 -0 -0 -0 -0 -1 -1 -2 -2
18 18 18 17 16 17 17 17 16 14 15 19 20 17 15 14 13 13 12 11 10 10 11 12 12 15 15 14 13 12 11 12 12 12 13 11 10 10 10 10 8 9 10 11 10 10 11 12 12 9 8 9 8 7 7 9 10 10 8 10 9 7 8 9 8 6 6 7 7 7 5 3 2 2 1 0 0 -0 -0 -0 -0 -0 -1 -1 -1 -1 -2 -2
19 18 18 17 16 17 18 17 16 15 16 19 19 14 13 12 11 11 10 9 9 8 11 14 13 13 14 14 14 13 12 11 12 12 13 12 10 10 10 9 8 8 8 9 10 10 9 11 11 9 10 9 5 6 8 7 8 10 10 9 8 7 8 8 7 7 7 7 7 7 6 4 4 4 1 -0 0 -0 -0 0 -0 -0 -1 -1 -1 -1 -2 -2
18 18 18 17 17 17 18 18 17 16 16 17 15 12 11 11 10 9 8 8 8 9 11 13 13 12 12 13 13 12 11 12 12 11 12 12 11 10 10 9 8 7 7 8 10 9 8 10 10 8 9 9 6 7 9 7 7 8 8 8 8 8 8 8 7 7 7 6 6 6 5 4 5 4 1 -0 1 0 0 0 -1 -1 -1 -1 -1 -1 -2 -3
18 18 18 17 17 17 18 18 16 16 18 16 13 12 11 11 9 7 7 7 8 10 12 11 11 12 12 11 12 11 10 11 11 11 11 12 11 10 8 8 9 8 7 7 9 9 8 9 10 9 8 9 9 9 9 8 8 8 8 8 8 8 8 7 6 7 6 6 6 6 6 5 4 3 1 1 1 1 0 -0 -1 -1 -1 -1 -1 -2 -2 -3
17 19 19 17 17 17 18 18 15 15 16 13 11 12 10 10 9 7 5 6 8 10 11 11 10 11 12 11 10 10 10 10 10 10 11 11 11 10 7 6 8 8 7 7 8 8 8 9 9 10 9 9 10 9 8 8 8 8 9 8 8 7 7 6 6 6 6 6 6 5 6 6 2 1 2 1 1 1 0 -1 -1 -1 -2 -1 -1 -2 -2 -3
15 19 19 17 17 17 18 18 13 11 13 11 10 11 10 9 10 8 5 4 7 9 9 10 10 10 11 11 10 9 9 10 10 10 10 10 11 10 6 4 5 6 7 8 8 7 8 8 7 8 9 9 10 8 6 7 7 8 8 7 7 6 6 6 5 5 4 5 6 5 6 5 1 1 2 1 0 0 -1 -1 -1 -1 -1 -1 -1 -2 -2 -3
16 18 18 17 18 18 18 16 10 8 11 11 10 10 9 8 10 9 7 5 7 8 8 9 10 9 10 10 10 9 9 10 10 10 11 10 9 9 6 3 3 5 6 8 7 6 7 6 6 8 8 9 9 6 4 5 7 7 7 6 6 6 5 5 5 5 4 4 5 4 5 4 0 0 1 0 0 -1 -1 -1 -2 -2 -1 -2 -1 -2 -2 -3
17 18 18 17 18 18 18 16 11 10 11 9 8 8 8 8 10 10 9 8 9 9 10 10 9 9 10 9 9 9 9 10 10 10 10 9 8 7 4 3 4 5 6 7 7 6 6 6 6 8 8 8 8 6 5 5 7 7 6 5 5 4 4 4 4 4 4 4 4 4 5 3 1 0 1 -0 -0 -1 -1 -1 -2 -2 -2 -2 -2 -2 -2 -3
15 15 16 17 19 20 18 16 14 13 11 9 10 10 8 8 10 10 10 9 9 9 10 11 9 9 9 8 9 9 9 10 11 9 9 9 8 5 3 3 4 5 6 6 6 6 7 7 7 7 8 8 8 7 7 6 7 6 6 4 3 3 3 3 2 2 3 4 4 3 4 3 1 0 0 -0 -0 -1 -1 -1 -1 -2 -2 -2 -2 -2 -2 -4
15 15 15 16 16 16 14 12 13 14 12 12 12 11 10 10 8 8 9 9 7 7 10 10 9 8 8 8 8 9 8 10 10 9 8 9 8 5 4 4 4 5 5 4 4 6 7 7 7 7 7 6 7 7 7 6 5 5 5 4 3 1 1 2 3 3 3 3 2 3 3 3 2 0 -0 -0 -1 -1 -1 -1 -2 -2 -2 -3 -3 -3 -3 -5
17 17 17 16 13 11 9 7 10 14 12 13 13 11 11 12 9 6 7 9 8 7 8 9 8 8 9 9 9 9 9 9 9 9 9 9 8 6 4 4 4 5 5 4 4 5 6 6 6 7 7 6 7 7 6 5 4 4 4 3 2 1 -1 1 3 3 2 2 2 3 3 2 1 -0 -1 -1 -1 -2 -2 -2 -2 -3 -3 -3 -3 -3 -5 -6
16 15 14 16 15 14 12 9 10 12 11 12 13 11 11 12 11 9 9 9 8 7 8 9 8 9 9 9 8 9 9 8 8 8 7 7 7 6 4 4 5 5 5 5 4 5 7 7 5 5 6 7 6 6 5 4 4 4 3 2 2 1 1 2 2 2 2 1 2 3 2 2 1 -1 -2 -2 -2 -2 -2 -3 -3 -3 -3 -4 -4 -4 -6 -6
14 13 10 12 14 14 14 12 10 10 11 10 10 10 11 12 12 11 11 9 8 8 10 10 9 9 8 7 8 9 8 8 8 7 6 5 5 6 6 5 5 4 5 6 5 4 6 7 4 3 5 6 5 4 4 4 4 3 1 1 1 1 2 2 1 2 2 1 1 2 2 1 -1 -2 -2 -2 -3 -3 -3 -3 -3 -3 -4 -4 -5 -6 -6 -7
12 13 9 9 12 12 10 9 9 11 12 11 11 11 11 12 12 10 9 10 11 10 10 11 10 8 7 7 8 9 8 8 8 7 6 5 5 5 7 7 5 4 5 6 4 3 5 6 3 2 4 5 4 4 4 3 4 2 1 0 0 1 1 1 1 2 1 1 1 2 1 0 -2 -3 -3 -3 -3 -3 -3 -3 -3 -4 -4 -5 -6 -6 -7 -8
13 14 12 11 11 9 8 8 10 13 13 11 12 11 9 11 12 10 8 10 12 11 9 10 10 8 7 7 8 8 8 8 8 7 6 5 5 5 6 6 5 4 5 5 4 3 5 5 3 2 3 5 5 4 4 3 3 2 0 0 0 0 1 1 1 2 1 1 1 1 1 0 -2 -3 -3 -3 -3 -3 -4 -4 -4 -4 -5 -6 -7 -7 -8 -9
12 12 12 15 13 9 9 10 10 14 14 11 12 12 10 11 11 9 9 9 9 10 10 9 9 7 6 6 7 8 7 6 7 6 6 5 5 5 5 4 4 4 5 4 3 4 5 4 3 2 4 5 5 4 4 3 2 1 -0 -0 0 0 1 1 1 1 1 -0 -0 -0 -0 -1 -2 -3 -3 -3 -3 -4 -4 -4 -5 -5 -5 -7 -7 -8 -9 -10
12 11 11 15 14 9 10 11 11 13 13 11 10 10 11 11 8 8 11 10 7 8 8 7 8 7 8 8 7 6 6 5 5 4 4 4 4 3 4 3 3 4 4 3 2 2 2 3 4 3 4 6 5 3 3 3 3 2 -0 -1 0 0 1 1 1 1 0 -1 -1 -1 -1 -2 -3 -3 -4 -4 -4 -4 -5 -5 -5 -5 -6 -8 -8 -9 -10 -11
Height
815 815 815 814 814 814 813 812 812 811 811 810 810 810 809 809 809 808 808 807 807 806 806 805 804 803 802 801 800 799 798 798 798 799 799 801 801 800 799 797 797 795 795 794 793 793 792 792 792 792 792 793 797 798 798 800 802 802 808 815 815 818 816 808 808 812 807 801 804 811 815 811 807 811 813 813 813 814 815 815 814 813 814 815 814 814 815 815
816 815 815 815 814 814 813 813 812 812 811 811 811 810 810 810 809 809 808 808 807 807 806 805 804 803 802 801 800 799 798 798 798 799 800 801 800 799 798 797 796 796 795 794 794 794 794 794 793 793 794 796 799 799 799 802 803 804 814 817 812 811 808 804 803 805 806 802 804 810 815 814 809 810 812 811 812 815 815 813 814 813 812 814 815 815 815 816
816 816 816 815 815 814 813 813 812 812 812 811 811 811 811 810 810 809 809 808 807 807 806 805 804 803 802 801 799 799 798 798 799 801 801 801 800 799 798 797 796 796 795 795 795 795 794 794 794 794 796 797 801 801 799 802 804 806 814 812 806 805 804 806 806 804 806 806 806 809 815 816 812 812 812 810 811 813 811 809 811 811 809 811 815 816 816 817
817 816 816 816 815 814 813 813 813 812 812 812 812 811 811 810 810 810 809 808 807 807 806 805 804 803 802 800 799 799 798 799 801 802 801 800 800 799 798 797 797 796 796 796 795 795 794 794 794 795 796 798 803 803 801 803 804 808 810 804 802 807 804 802 805 805 808 811 809 809 815 814 812 814 811 810 809 806 805 805 805 804 803 808 815 816 816 817
817 817 817 816 815 815 814 814 813 813 812 812 812 811 811 811 810 809 809 808 807 807 806 805 804 802 801 800 800 798 799 803 804 802 801 801 800 799 798 797 797 796 796 795 795 795 794 794 794 796 798 799 802 802 802 805 806 806 806 802 805 810 803 801 808 809 810 813 811 811 812 810 812 813 809 810 807 800 799 801 801 800 801 805 811 814 816 817
818 818 817 816 816 815 815 814 814 813 813 812 812 812 811 811 810 809 809 808 807 807 805 805 803 802 801 800 800 798 801 806 804 802 802 801 800 800 798 798 797 796 796 795 796 795 795 795 795 797 799 800 802 801 802 807 808 804 802 805 808 809 803 804 810 810 811 810 807 808 808 811 811 807 811 811 802 798 798 800 801 801 803 804 808 812 814 815
818 818 818 817 817 816 815 815 814 814 813 813 812 812 811 811 810 809 809 808 807 806 805 805 803 802 801 800 800 800 803 804 803 802 802 801 801 800 799 798 798 796 796 796 795 795 796 796 796 799 800 800 802 802 804 807 807 805 802 803 808 810 807 808 811 810 811 807 805 810 808 809 806 805 813 807 796 798 800 801 803 802 804 804 807 810 811 813
819 819 818 818 817 816 816 815 814 814 813 813 812 811 811 810 810 809 808 807 807 806 805 804 803 802 801 800 800 802 803 803 803 803 802 801 801 800 799 798 798 797 796 796 796 796 796 796 797 801 800 801 803 803 806 806 805 805 803 803 808 811 808 810 812 810 810 807 809 810 805 806 807 810 810 798 793 800 800 800 803 803 804 805 806 808 810 812
820 819 819 818 817 816 816 815 814 814 813 812 811 811 810 810 809 808 808 807 806 806 805 804 803 802 801 800 801 803 803 802 802 802 801 801 800 800 799 799 798 797 797 797 797 796 796 797 798 800 799 802 803 803 807 805 803 805 805 805 806 806 808 810 809 808 808 808 809 805 802 806 811 813 803 792 795 800 801 801 802 803 804 805 806 808 810 811
820 819 819 818 817 816 816 815 814 813 812 812 811 810 810 809 809 808 807 806 806 805 804 804 803 802 801 800 802 805 803 802 802 801 801 800 800 800 799 799 798 798 798 798 798 797 798 798 799 800 799 802 804 806 809 805 805 808 808 807 806 805 807 807 804 806 807 806 807 804 802 806 811 811 797 791 800 801 799 800 803 804 804 806 808 809 810 811
820 819 818 818 817 816 815 814 814 813 812 811 810 809 809 808 807 807 806 806 806 805 804 804 803 802 802 801 804 806 802 802 802 801 801 800 800 799 799 799 799 798 799 799 799 799 799 799 800 800 800 802 804 807 809 808 809 810 808 804 804 805 803 805 805 805 806 804 807 806 804 806 811 808 793 792 801 800 798 800 803 805 805 808 809 810 812 813
820 819 818 817 816 816 815 814 813 812 811 810 809 808 808 807 806 806 806 805 805 804 804 804 803 803 802 803 805 805 802 802 803 802 802 801 800 799 799 800 799 799 799 799 800 799 799 799 799 799 802 804 804 805 807 810 810 808 808 803 801 801 799 805 809 808 806 803 808 808 801 800 802 797 791 796 801 800 800 801 804 806 807 809 810 813 814 815
820 819 818 817 816 815 814 813 812 811 811 810 809 808 807 806 805 805 805 805 804 804 804 803 803 803 803 805 804 803 803 803 803 802 802 801 800 800 800 800 799 799 799 799 799 799 799 799 799 800 803 803 804 806 807 810 809 806 809 808 804 801 798 807 813 809 807 806 810 808 799 795 793 791 795 803 803 800 799 801 806 807 808 811 813 815 816 817
820 819 818 817 816 815 814 813 812 811 810 809 808 806 805 804 804 804 804 804 804 803 803 803 803 803 804 805 804 803 804 803 803 802 801 801 800 799 799 799 798 798 798 799 799 799 799 799 799 800 804 806 806 807 807 809 809 807 808 811 814 809 798 804 812 808 804 808 811 807 803 798 791 793 801 807 805 801 799 803 808 809 810 813 816 817 818 820
820 820 819 818 817 815 814 813 812 811 810 808 807 805 804 803 803 803 803 803 803 803 803 803 803 803 805 805 803 804 803 803 803 802 801 801 800 799 799 798 798 798 798 798 798 799 799 798 799 802 806 808 807 807 807 807 810 812 807 805 817 816 802 802 811 811 804 808 812 806 804 802 796 800 807 810 808 804 802 805 811 812 814 816 818 820 821 823
821 820 819 818 817 815 814 813 812 811 809 807 805 804 802 802 802 802 803 802 802 802 802 802 802 802 805 805 803 803 804 804 803 803 802 801 800 800 798 797 797 798 797 798 798 798 798 799 804 809 808 807 808 807 808 809 810 817 815 807 812 815 810 805 808 815 812 808 810 807 804 800 798 803 809 811 811 809 805 808 814 815 817 819 821 823 824 825
821 820 819 818 816 815 814 813 812 810 809 807 804 803 802 802 802 802 802 802 802 802 802 802 802 803 805 805 804 805 806 805 804 803 802 801 800 799 798 797 797 797 797 797 797 798 798 801 807 810 809 812 814 809 811 813 808 813 821 816 814 816 816 809 804 813 817 810 809 809 809 803 797 804 811 814 817 814 808 810 816 819 821 823 825 826 827 828
821 820 819 818 817 816 814 813 812 810 808 806 804 803 803 803 803 803 803 801 802 801 802 802 802 806 809 807 808 809 807 806 805 804 803 801 800 799 798 798 798 797 798 799 798 799 801 804 808 808 810 814 814 811 813 813 809 811 816 816 816 817 819 815 807 811 815 812 811 810 809 804 804 813 819 821 822 817 814 816 818 822 824 826 827 829 830 831
822 821 819 818 817 816 815 814 812 811 809 806 805 805 804 804 803 803 803 802 804 806 808 809 808 813 814 811 812 810 807 806 805 804 803 802 800 799 799 799 800 798 799 800 800 803 805 805 808 808 808 810 810 813 812 811 814 815 817 817 816 816 817 814 809 815 819 812 810 811 808 809 817 826 827 826 825 821 820 822 823 824 826 828 830 832 834 835
822 821 819 818 817 816 815 814 813 812 810 807 806 805 805 807 807 806 806 807 811 814 815 816 815 815 814 813 812 809 807 806 805 806 804 802 800 800 800 800 801 800 803 805 804 809 812 808 809 810 809 811 815 819 819 820 823 820 819 818 818 819 815 810 809 819 824 811 810 817 815 820 833 836 834 831 827 825 825 826 827 828 829 831 833 835 837 839
822 821 820 819 817 817 815 814 814 812 811 809 807 807 811 814 813 812 813 813 816 817 816 817 817 816 814 814 813 811 809 807 806 806 805 804 801 799 801 802 802 803 810 815 812 813 814 810 811 815 819 822 824 827 826 825 823 820 818 817 819 821 814 811 816 822 823 813 814 822 818 828 842 839 838 836 831 833 833 831 832 833 834 835 836 838 840 843
822 821 820 819 818 817 816 815 814 813 813 811 809 811 815 816 816 816 817 815 816 817 817 817 817 816 815 815 814 813 812 810 808 806 806 805 801 802 805 807 807 809 814 817 813 813 813 810 815 824 830 829 827 828 825 821 820 819 821 820 817 820 816 814 820 824 822 814 813 818 817 829 843 840 839 840 838 840 839 837 838 837 838 839 839 841 843 845
823 822 821 819 819 817 816 815 815 814 813 812 812 814 816 816 817 817 817 816 816 816 817 816 816 816 815 814 815 814 813 815 813 810 809 806 806 809 810 811 812 813 815 814 813 815 812 812 823 831 830 825 821 823 822 819 820 817 820 820 815 819 818 811 815 821 821 818 817 819 821 831 841 840 840 841 841 843 842 841 842 842 842 842 843 844 845 848
823 822 821 820 819 817 816 816 815 815 814 814 815 815 816 817 817 817 817 819 819 817 817 818 818 818 817 816 816 815 815 818 817 814 812 810 811 813 813 816 815 813 818 820 818 817 813 819 832 831 825 822 818 818 819 818 818 817 818 818 813 816 818 815 819 820 819 821 824 821 818 827 841 842 842 844 843 844 845 844 845 846 847 846 847 848 849 851
824 823 822 820 819 818 817 816 816 816 815 816 816 816 817 816 817 817 816 820 821 818 817 818 818 818 818 817 816 817 817 818 818 817 815 815 814 814 816 820 817 813 818 823 821 817 816 826 832 823 819 822 818 817 818 817 819 818 815 818 817 817 819 820 822 819 814 813 819 819 807 815 840 847 846 848 847 849 850 849 850 852 852 850 851 853 854 855
824 823 822 820 819 818 816 816 816 816 816 816 816 817 817 816 817 817 817 822 825 823 820 817 819 819 818 818 818 818 818 817 818 819 817 817 817 816 816 819 820 817 820 823 822 820 821 828 829 821 819 820 819 818 820 822 821 816 818 826 826 823 823 822 821 821 814 808 817 820 807 811 835 846 848 852 852 854 854 854 856 857 856 856 856 857 858 858
824 823 822 820 819 818 816 817 817 817 817 817 817 816 816 816 816 815 818 826 831 830 826 820 820 821 820 822 820 818 820 820 818 819 819 817 817 817 815 818 820 820 826 824 817 819 823 823 823 822 820 819 818 817 821 826 819 815 827 832 826 824 824 823 824 824 822 820 821 822 817 814 825 840 850 853 854 856 858 858 860 861 860 860 860 861 861 861
824 823 822 820 819 818 817 818 817 817 818 817 817 816 816 816 816 815 819 833 837 831 829 825 820 821 822 823 822 821 824 824 820 818 820 819 818 817 815 819 821 821 828 825 814 819 825 819 819 822 821 820 819 820 827 829 819 820 833 835 830 829 828 829 830 828 832 832 819 818 825 816 818 844 854 851 854 858 861 863 863 864 864 863 864 863 864 864
824 823 822 821 819 818 818 818 817 818 817 817 816 816 816 816 816 816 820 835 839 831 831 827 820 825 828 823 823 826 826 826 826 822 820 820 819 818 819 824 826 824 829 828 818 820 825 826 828 825 822 822 823 827 833 829 822 829 838 835 834 836 835 835 833 829 835 832 813 813 822 809 814 848 857 849 854 859 862 866 865 866 866 865 866 866 866 866
824 823 822 820 819 818 818 817 818 818 817 816 816 815 816 816 816 821 829 839 839 834 833 829 828 836 835 826 824 829 829 829 833 828 822 824 821 821 826 829 828 824 827 828 821 821 830 834 834 831 829 831 831 833 837 835 832 835 835 827 824 831 836 838 838 836 830 820 812 818 825 813 811 838 854 850 853 857 862 867 867 868 868 867 868 868 868 868
824 823 822 820 820 819 818 818 817 817 816 815 815 815 816 817 821 830 840 843 840 838 835 835 840 841 841 840 834 833 833 832 835 831 827 829 827 826 828 828 828 824 821 824 822 822 827 829 831 834 837 838 833 830 835 842 841 835 829 823 817 819 826 829 832 833 820 808 815 828 831 820 813 831 853 857 857 859 863 868 869 869 869 869 870 869 870 869
823 823 822 821 820 819 818 819 817 817 816 814 815 816 815 820 831 844 849 843 840 844 844 846 847 844 847 850 843 841 841 836 835 837 838 839 839 842 843 843 841 831 826 832 831 824 819 823 833 836 838 840 832 824 828 834 834 830 827 824 819 818 820 818 816 823 817 808 821 833 827 819 825 848 863 864 863 864 866 869 870 870 870 871 871 871 871 870
823 823 822 821 820 820 819 819 817 816 815 814 816 815 815 825 843 858 857 846 846 852 854 853 851 851 852 844 841 848 847 840 838 840 843 843 842 848 853 856 853 842 837 841 839 833 822 822 831 830 833 840 835 828 827 828 828 831 832 830 827 829 831 824 821 828 823 813 825 837 826 818 834 859 869 866 867 868 869 870 870 870 871 871 872 872 872 872
823 823 822 821 820 820 818 817 816 816 815 815 815 814 821 837 854 862 858 853 856 857 858 860 855 851 849 844 848 854 845 840 845 842 840 840 840 845 849 852 854 850 845 843 846 848 835 825 826 827 832 838 837 837 839 835 834 840 843 838 832 833 836 834 828 827 825 824 830 830 824 825 838 857 869 869 869 871 870 871 871 871 872 872 873 873 873 873
823 823 823 821 820 819 818 817 815 815 814 814 817 823 836 851 861 862 860 861 863 860 859 863 857 845 842 847 855 857 848 843 847 844 840 843 847 850 852 854 857 856 849 846 852 856 846 833 831 838 842 841 838 843 847 839 834 843 847 839 835 838 839 838 838 842 847 845 837 831 838 855 862 865 871 871 870 873 872 872 873 873 874 874 874 874 874 875
823 823 822 822 821 819 817 816 814 814 814 812 822 840 852 858 862 864 865 866 868 868 861 856 854 846 843 847 850 853 854 850 849 845 843 850 855 856 858 859 863 862 855 854 857 856 851 838 832 840 844 842 844 846 847 841 834 838 842 837 841 849 845 842 846 854 857 848 838 837 846 863 869 865 870 873 872 874 874 873 875 875 875 875 875 875 875 875
823 823 823 822 821 819 817 816 814 813 814 815 829 852 864 865 867 870 872 872 873 875 865 852 854 855 852 852 848 848 853 851 851 848 845 852 856 857 861 862 865 867 864 863 859 859 861 847 837 843 840 840 852 850 845 849 845 839 840 840 846 850 847 849 851 849 849 845 838 836 844 856 856 853 866 875 873 874 874 874 875 875 875 876 876 876 876 875
823 823 823 823 822 820 817 816 815 814 816 827 845 862 868 868 872 875 876 876 876 873 865 858 859 860 860 858 852 854 856 850 850 853 850 851 855 859 863 863 866 869 870 868 860 861 868 855 843 849 846 842 850 847 841 848 850 846 846 846 846 847 846 851 854 850 854 855 844 841 851 857 849 850 867 874 870 873 874 873 876 876 876 877 876 875 876 876
823 823 824 825 822 821 819 817 817 816 819 838 856 864 868 870 874 879 879 878 877 871 865 867 868 864 863 863 859 861 863 857 857 859 855 853 857 863 869 868 866 868 871 870 864 863 868 862 848 846 849 845 842 843 846 848 849 848 849 848 849 852 853 856 859 857 858 857 850 846 843 843 851 859 865 867 867 870 872 873 877 878 877 877 875 875 875 875
824 824 826 826 822 823 822 817 819 824 833 853 865 865 870 872 873 880 882 879 876 871 868 871 873 867 864 865 867 868 868 864 864 863 859 859 860 864 874 877 871 869 871 870 868 867 867 866 856 845 846 846 842 849 856 855 852 849 848 852 855 856 857 860 862 862 860 854 855 856 840 839 862 867 861 866 870 870 873 875 878 878 877 876 874 874 874 874
824 826 828 826 823 824 821 821 835 849 854 864 869 868 872 874 872 877 883 882 878 874 874 874 872 871 869 867 869 873 871 867 867 866 864 863 861 864 877 884 879 875 871 866 868 872 869 870 868 858 852 847 845 854 860 859 857 854 853 858 863 863 863 865 865 866 868 860 858 861 846 846 868 871 865 871 872 872 877 878 878 878 877 876 874 874 874 874
827 831 832 827 824 823 822 834 858 867 862 865 870 872 875 875 873 874 879 881 878 876 876 874 874 875 874 871 871 875 874 868 866 865 864 867 869 871 880 887 885 880 875 870 872 875 874 876 875 865 857 851 851 860 867 865 860 857 859 863 866 868 869 871 867 865 869 865 862 862 853 856 874 875 870 873 874 877 879 878 879 879 876 876 875 874 874 874
832 834 832 828 827 824 826 843 862 866 866 873 876 877 878 876 873 873 875 876 875 874 873 872 874 874 873 875 874 873 872 869 866 866 866 870 876 880 885 887 884 880 876 873 875 875 874 877 875 864 856 853 853 860 866 864 859 858 864 869 872 874 874 875 874 874 873 866 864 864 856 861 875 875 874 877 877 878 879 878 880 879 877 877 876 875 874 874
837 836 834 831 826 823 831 847 857 862 869 873 872 873 877 878 875 873 873 875 876 876 872 871 875 874 875 880 876 873 873 867 864 869 871 871 877 884 888 887 882 879 877 876 877 874 870 872 873 867 863 858 855 858 860 859 863 866 869 875 879 881 882 880 880 884 877 866 868 869 859 861 874 877 877 879 878 879 879 878 879 879 878 877 876 875 874 874
837 837 837 835 829 830 845 857 857 859 867 868 867 872 874 875 878 878 876 877 881 881 875 873 877 878 878 880 876 876 876 869 867 872 874 874 878 883 886 885 884 881 880 882 882 877 873 875 874 870 874 876 872 870 866 865 871 872 873 880 884 887 891 883 878 881 877 873 877 875 865 864 872 878 879 880 881 881 879 878 879 880 879 878 877 875 874 876
837 840 842 842 840 845 859 869 864 860 865 866 866 875 875 870 876 883 880 877 881 883 879 877 879 878 876 876 875 874 874 875 874 873 874 875 876 882 885 885 884 883 881 882 882 880 878 879 880 877 877 880 877 873 872 876 880 876 878 886 888 893 898 888 881 883 884 885 882 874 871 872 874 881 884 883 884 883 881 881 880 879 879 878 877 875 876 878
840 848 853 849 848 852 859 868 868 865 868 868 868 876 877 871 873 877 877 877 881 882 880 878 879 878 876 878 878 876 876 879 878 876 881 883 880 882 885 885 884 883 881 881 881 881 877 876 886 889 879 876 879 878 878 883 884 882 887 891 891 893 892 887 886 886 888 891 883 871 873 876 880 888 889 886 887 885 884 883 881 880 880 878 877 877 877 878
845 854 862 857 854 859 861 866 871 871 870 872 876 879 877 873 873 874 874 877 879 879 876 874 877 880 883 884 880 877 877 877 877 881 886 888 887 884 881 883 885 884 882 880 881 885 880 877 891 896 883 879 884 883 883 884 885 888 895 896 896 896 891 890 892 889 890 895 888 876 875 879 886 893 891 889 889 886 885 885 883 882 880 878 878 878 878 879
850 855 863 862 861 870 873 875 875 871 869 872 875 878 878 874 874 879 880 877 874 877 876 872 875 881 885 887 882 880 881 878 878 884 887 888 891 887 881 880 884 887 885 881 885 891 883 880 894 901 889 881 881 882 884 884 884 892 900 900 899 897 893 893 892 888 890 892 885 880 879 881 890 895 892 890 889 887 887 885 883 882 880 878 879 879 879 880
848 850 858 861 865 875 879 878 874 866 869 874 872 877 883 877 875 881 884 878 872 875 879 877 878 882 886 887 883 881 884 884 883 886 888 889 890 889 886 885 886 888 886 885 890 891 882 883 896 902 891 879 879 882 882 883 887 894 901 901 898 896 893 892 891 889 891 888 884 883 880 880 888 892 891 890 888 887 886 884 882 881 879 879 880 880 881 881
847 849 852 853 864 876 876 876 876 866 868 875 874 878 881 877 879 883 881 881 880 877 879 880 880 884 887 886 884 883 885 887 886 886 887 889 890 889 890 892 893 892 889 892 896 891 888 890 895 898 888 876 878 883 882 885 889 895 903 903 899 897 894 892 891 889 891 891 888 886 883 884 889 891 889 889 888 887 886 884 881 879 878 881 881 881 882 882
848 850 851 850 863 878 877 875 875 869 872 881 881 881 880 877 886 886 876 879 885 882 883 884 883 883 882 880 882 885 887 888 888 888 890 890 892 893 893 894 896 894 892 896 900 901 901 894 891 899 890 873 878 886 884 883 884 891 903 906 900 897 893 891 891 888 890 895 893 890 889 891 893 892 890 889 886 886 885 883 880 878 879 882 882 882 883 883
Wind_Speed
4 6 7 7 8 9 8 8 7 7 7 6 6 6 6 6 7 8 9 11 11 12 13 12 12 13 16 13 11 12 10 6 6 7 7 7 10 12 12 13 12 11 10 10 10 8 5 4 6 8 4 3 3 1 2 3 3 3 3 3 3 4 4 6 7 7 4 2 3 4 5 6 4 2 1 1 2 2 1 3 4 4 2 1 2 1 10 20
4 6 7 8 9 10 8 7 6 6 6 6 6 6 6 7 8 9 9 11 11 11 12 12 12 13 15 12 8 11 7 3 4 5 7 8 11 12 12 13 12 11 10 9 10 8 4 4 6 6 4 1 2 2 1 2 2 3 3 2 4 6 5 6 7 6 3 1 2 2 3 6 5 2 2 2 3 2 2 5 4 5 5 1 3 7 16 20
5 6 8 9 10 10 8 7 6 6 6 5 6 6 6 7 8 9 9 10 10 12 13 12 12 12 14 10 6 9 6 3 4 3 6 10 11 11 12 11 10 10 10 8 8 6 2 2 2 4 4 1 1 2 1 1 0 2 3 2 6 6 5 4 6 6 5 2 2 2 2 4 5 1 2 3 4 3 5 6 3 6 10 5 3 10 16 18
5 7 8 10 10 10 8 7 7 6 6 6 6 6 6 6 7 8 9 10 11 13 13 12 12 12 13 8 5 6 4 5 3 2 7 10 11 12 12 9 9 10 9 7 6 5 2 1 3 4 3 0 3 3 0 1 0 2 4 5 5 3 2 4 6 6 4 2 3 3 3 2 5 2 2 3 2 6 6 7 8 10 11 8 5 9 14 15
6 7 8 10 10 9 8 7 7 6 6 7 7 7 6 6 7 8 10 11 12 13 13 12 12 13 11 7 4 4 4 5 2 4 9 10 11 13 12 9 9 10 6 5 5 2 1 2 5 5 3 1 2 2 1 1 2 1 3 6 4 4 2 4 4 4 4 4 4 5 4 2 1 1 3 6 5 7 5 5 10 11 8 9 9 10 12 12
6 7 9 10 10 10 8 7 6 6 6 7 7 7 7 7 8 9 10 11 11 12 12 12 12 12 10 5 4 3 3 2 2 5 9 10 11 12 11 9 9 9 6 5 5 1 1 3 3 2 3 0 2 3 3 2 2 2 4 2 3 4 2 1 2 3 5 6 4 5 3 1 2 3 3 6 10 8 4 3 5 6 4 9 12 12 11 11
7 8 10 10 10 10 9 8 7 6 7 8 8 9 8 9 9 10 11 11 11 11 12 11 11 11 8 4 2 4 4 1 3 6 9 10 10 11 11 8 8 8 5 6 6 2 2 3 1 4 3 1 3 3 3 3 2 2 4 3 1 4 3 1 1 3 4 4 4 3 1 2 2 3 1 5 12 8 6 3 2 1 3 11 12 11 11 12
7 9 10 10 10 10 10 9 8 8 8 8 9 10 10 10 9 10 11 10 10 10 11 11 11 10 8 3 1 3 3 1 4 7 9 11 10 11 10 7 8 7 5 9 8 1 2 2 1 4 2 2 4 3 0 3 2 2 4 3 0 3 4 4 2 2 3 3 2 2 1 4 5 1 1 10 10 5 7 4 2 4 7 9 9 10 9 9
7 8 9 10 10 10 10 10 10 9 9 9 9 10 10 10 9 10 10 9 9 10 11 11 10 9 7 2 4 3 3 2 6 8 10 12 11 10 8 8 11 9 8 11 9 3 1 0 1 3 2 2 4 2 1 1 3 4 4 2 2 2 4 3 3 2 1 2 2 2 4 3 4 1 3 11 6 3 4 3 2 6 6 6 6 8 8 8
7 8 9 10 11 11 11 11 11 11 11 10 10 10 10 10 10 9 9 8 8 9 11 10 9 8 6 3 6 3 3 4 7 8 11 13 12 8 7 9 12 12 9 9 11 8 3 1 2 2 4 2 3 1 0 2 2 2 3 3 3 3 4 1 2 2 1 1 2 2 5 4 2 2 4 6 2 4 5 6 4 6 5 3 3 5 7 6
8 9 9 11 12 12 13 13 12 12 12 12 12 12 11 11 10 10 8 8 7 8 10 9 8 7 4 3 5 1 3 4 6 9 11 12 12 9 7 9 11 12 9 8 9 7 4 1 3 3 1 0 1 1 1 2 1 0 1 4 5 6 5 1 1 4 1 1 3 3 4 4 2 2 6 2 3 4 7 6 6 6 2 1 2 3 3 2
9 9 10 11 12 13 14 14 13 13 13 13 13 13 13 13 12 11 9 8 7 8 10 9 7 4 2 4 3 2 2 4 6 10 11 11 12 9 5 8 11 10 7 6 5 6 6 1 4 4 1 1 1 1 1 1 1 1 3 4 8 8 6 3 3 5 1 1 3 3 4 5 2 6 5 5 6 6 8 6 6 5 2 1 2 3 4 4
9 9 10 11 12 14 14 14 14 14 14 14 14 14 14 14 13 12 10 8 7 8 9 7 5 3 2 3 1 1 3 4 7 10 11 11 11 6 4 9 12 8 5 4 3 5 6 2 4 4 1 3 0 1 2 3 2 2 3 3 6 8 6 5 3 2 1 1 1 1 4 6 7 9 7 7 6 6 6 6 6 4 3 4 4 6 5 6
8 9 10 11 13 14 14 14 14 14 15 16 16 16 15 14 12 11 9 8 8 9 9 6 4 2 1 1 1 2 3 3 8 14 13 12 12 6 5 12 10 4 3 2 2 4 5 2 5 5 2 3 0 0 4 5 3 2 2 2 3 3 5 6 2 2 3 0 3 2 3 6 9 9 8 8 6 5 4 6 6 5 5 5 5 6 6 8
8 9 11 13 14 14 14 14 14 15 16 17 18 17 15 12 9 8 8 8 10 10 8 4 2 1 2 1 1 3 4 3 11 17 14 13 13 8 11 15 7 3 3 1 1 3 4 3 5 4 1 1 3 3 3 5 4 3 2 4 3 1 6 8 2 2 2 1 4 3 3 7 8 7 6 7 7 6 4 5 6 6 6 6 6 8 8 9
9 11 13 14 14 14 14 14 14 16 17 18 19 15 11 7 5 4 6 9 9 8 5 2 1 2 3 1 2 4 4 5 13 16 10 12 12 9 14 11 4 5 4 3 3 3 4 5 4 2 0 1 4 4 4 4 4 4 1 4 3 2 4 6 3 1 1 1 2 1 3 5 4 2 4 9 10 9 7 6 7 6 6 7 6 7 8 9
12 13 14 14 14 14 14 13 15 16 18 20 16 9 6 4 3 2 5 6 4 2 2 1 1 3 3 3 3 4 5 9 15 12 9 13 12 10 12 5 3 7 4 4 3 2 4 5 1 1 2 3 2 4 5 4 5 4 2 2 4 3 2 4 4 3 3 2 1 1 3 7 7 3 9 12 12 9 7 5 5 5 6 7 7 8 9 10
13 13 14 14 14 14 13 13 15 16 19 20 12 7 6 6 7 7 6 4 3 4 5 3 4 4 1 5 3 6 11 14 13 9 11 15 12 9 8 3 3 6 4 4 3 2 3 3 2 1 3 4 2 5 1 5 3 3 3 2 4 3 3 4 4 2 1 1 2 2 4 10 9 9 11 12 10 7 5 3 5 6 8 8 8 9 9 11
13 13 13 14 14 15 13 12 16 16 18 18 9 4 4 4 5 8 11 10 4 3 2 2 4 2 2 5 4 11 14 10 7 8 14 18 12 6 5 4 4 4 4 2 3 3 2 2 3 1 2 3 1 5 6 7 4 3 4 3 4 5 4 5 5 4 1 1 3 5 6 7 9 12 12 12 9 6 4 5 6 6 8 8 8 9 10 11
12 13 14 15 15 15 13 11 15 16 17 17 9 3 3 2 3 4 9 10 3 2 1 2 1 1 3 4 7 13 11 3 3 9 17 19 10 4 4 5 6 5 4 1 3 3 2 2 2 4 5 6 5 5 5 3 3 2 1 2 4 5 6 6 4 5 1 1 4 3 2 6 8 10 11 11 9 10 8 8 8 7 8 8 10 11 11 11
13 14 14 15 15 16 13 9 13 15 14 15 10 4 2 1 2 3 4 5 1 1 1 2 2 1 4 4 7 11 5 2 4 9 19 18 7 3 4 5 6 5 3 1 3 3 4 1 5 6 6 6 3 3 3 3 2 1 1 4 5 4 6 5 2 5 3 1 4 3 5 6 7 8 9 9 9 10 8 7 8 8 8 8 11 12 11 9
13 14 14 15 15 16 14 9 11 14 12 13 11 7 4 3 2 1 0 1 1 1 0 2 1 2 4 2 6 8 2 4 5 7 19 18 7 4 3 5 5 2 4 3 2 5 4 2 7 6 4 2 3 4 4 3 2 1 0 2 4 3 5 5 3 5 2 2 3 3 5 4 6 7 8 9 8 7 7 8 7 7 9 8 10 11 10 10
13 13 14 15 15 16 14 8 9 12 11 12 10 6 3 3 3 1 1 2 1 2 2 3 2 4 5 2 6 8 4 4 3 6 17 15 5 3 2 5 4 2 5 5 2 2 3 3 4 2 2 1 3 3 4 3 1 1 2 2 5 4 2 3 4 4 1 1 2 2 4 2 4 5 7 8 6 6 8 9 9 8 8 8 9 9 10 11
12 13 13 15 14 15 13 7 7 11 10 11 10 6 3 2 2 1 2 2 1 2 1 1 1 1 3 2 7 7 2 2 2 5 13 10 3 2 3 2 3 3 3 3 5 1 5 4 2 2 3 2 2 4 3 2 4 3 4 4 5 4 3 5 4 5 3 2 1 3 3 2 2 4 5 6 6 7 8 9 11 9 8 9 10 10 10 10
13 13 13 15 14 15 12 5 6 9 6 6 7 4 2 1 1 1 2 3 2 3 2 0 1 2 2 3 8 5 1 1 1 4 8 7 3 3 2 0 2 3 3 1 3 2 5 3 1 2 5 5 1 4 2 3 3 5 4 6 6 4 4 4 4 5 4 4 1 3 2 3 1 4 3 4 5 7 7 9 10 9 8 9 10 10 10 10
13 13 14 15 14 14 10 2 5 8 3 3 6 3 0 1 1 1 2 4 2 3 4 2 1 4 6 5 7 2 1 2 1 2 6 6 2 1 1 2 1 3 3 1 2 2 3 2 2 2 3 5 3 3 3 4 2 4 3 3 3 2 2 3 3 3 1 3 2 2 1 4 2 2 1 2 5 7 7 9 9 8 8 8 8 7 8 8
12 13 15 15 14 13 7 1 5 6 1 3 6 4 1 1 1 1 2 5 3 2 3 3 2 5 7 6 6 3 1 5 2 3 5 6 4 1 2 3 1 2 1 1 3 1 2 3 4 4 4 5 3 2 2 4 4 3 3 3 2 1 3 4 1 2 3 3 3 0 3 2 3 1 2 2 5 7 7 8 7 7 7 7 7 7 7 7
13 14 14 14 13 12 7 2 4 3 2 4 5 2 1 2 1 2 5 4 2 1 0 4 3 4 6 7 7 5 0 5 2 3 5 6 5 3 2 1 2 3 3 3 2 4 1 1 2 2 4 2 2 3 1 4 0 4 2 2 2 2 3 2 2 3 1 3 4 2 3 2 4 1 2 1 4 5 5 5 5 6 6 6 7 7 7 7
13 13 13 13 11 11 7 4 6 5 4 5 3 1 1 1 0 3 6 2 2 1 1 2 3 4 8 7 6 5 2 4 3 5 7 5 5 5 2 1 4 2 2 2 2 4 0 1 2 2 1 2 4 3 2 4 3 3 1 1 1 3 2 1 2 2 2 2 4 4 2 2 3 2 3 1 2 3 2 3 4 4 5 5 6 6 6 6
13 12 12 11 10 11 6 4 10 9 7 6 3 2 2 2 4 6 4 0 1 2 1 3 3 4 8 8 6 6 5 3 3 5 6 3 5 7 3 1 4 5 2 4 1 4 3 1 1 2 1 2 2 2 2 4 3 3 2 3 3 3 3 3 2 3 3 2 6 5 2 2 2 3 5 1 2 5 4 3 3 4 5 5 5 5 5 5
12 10 11 11 12 13 7 5 11 11 9 6 1 2 2 2 5 6 2 2 1 3 3 5 4 4 8 6 4 6 5 5 5 6 6 5 7 8 5 3 4 4 4 6 4 6 6 3 0 1 0 1 3 3 1 0 2 3 3 3 4 4 3 4 4 3 3 4 5 4 1 2 2 3 2 2 1 6 5 4 4 4 5 5 5 5 4 5
10 9 9 11 14 16 10 7 11 11 9 4 2 3 3 3 4 3 2 4 3 3 3 2 4 5 6 3 3 5 4 5 5 5 4 3 5 5 5 3 3 5 5 5 5 7 5 1 1 3 2 3 3 4 5 4 5 5 4 4 4 5 4 3 4 2 2 4 3 2 4 0 3 2 1 1 4 5 4 4 5 5 5 4 4 4 4 4
7 7 9 13 15 17 15 12 12 11 8 1 3 4 6 5 2 1 3 4 2 3 1 2 4 4 4 4 4 5 3 3 5 5 1 2 5 3 3 3 2 3 3 3 4 6 5 4 3 4 2 2 3 3 5 3 4 6 3 3 3 3 4 5 4 2 4 5 3 2 4 2 1 2 2 2 5 4 5 5 5 5 5 4 4 4 4 4
5 7 10 13 16 20 20 16 13 10 6 2 3 5 8 5 1 1 3 3 2 4 2 1 6 5 3 3 3 4 3 2 5 6 4 3 5 3 4 5 6 3 1 2 3 3 3 4 4 4 2 3 4 2 1 2 3 3 1 3 2 1 1 4 3 3 5 5 4 3 2 2 1 2 2 3 5 4 4 5 5 6 5 4 3 3 4 4
3 7 10 13 17 23 23 17 13 9 3 4 7 7 6 2 3 1 2 4 2 5 4 2 4 5 4 3 3 3 2 2 5 6 5 4 3 2 3 5 5 4 2 3 2 1 1 5 5 2 2 2 3 1 0 2 3 1 2 3 2 1 2 2 3 3 3 4 4 2 1 1 0 1 2 3 4 3 4 3 5 5 4 3 3 3 3 3
2 4 9 13 20 25 22 15 11 7 1 6 9 5 2 2 2 2 2 2 1 3 6 5 5 4 4 5 4 4 2 1 4 5 3 2 1 2 2 1 3 4 3 2 1 2 2 5 6 4 3 2 2 2 2 3 2 1 2 1 2 3 4 1 3 1 2 2 3 1 1 0 1 0 2 4 3 2 3 2 4 4 4 4 3 2 2 2
2 1 5 14 24 24 17 12 7 4 4 7 8 3 2 1 1 2 1 2 1 1 3 4 3 3 3 3 4 6 5 2 2 4 3 1 2 2 3 1 1 3 2 1 2 1 0 6 7 5 3 2 1 1 3 3 1 2 2 3 3 1 4 2 1 4 4 2 4 1 1 2 0 1 4 6 4 3 3 3 4 4 4 5 4 1 2 2
1 1 3 15 26 20 12 8 5 6 7 7 6 3 1 0 0 1 1 1 1 1 4 2 2 2 1 1 4 6 5 4 4 4 3 2 2 2 3 2 2 2 2 2 1 1 1 4 7 2 2 6 2 4 4 4 2 2 1 3 2 2 2 2 1 3 4 4 5 3 3 3 2 2 5 8 7 5 4 4 5 5 5 4 4 1 2 2
2 2 2 16 25 15 9 7 5 7 8 6 3 2 0 1 0 1 1 1 1 2 3 0 1 2 1 1 2 4 4 3 4 4 2 2 2 3 3 2 3 3 4 2 0 2 1 1 5 4 3 5 4 4 4 5 5 4 2 3 3 2 2 1 0 1 1 4 5 4 5 3 2 2 5 7 6 5 4 3 5 5 5 4 4 2 1 1
3 2 1 18 23 8 8 14 11 8 7 4 2 1 1 1 1 1 1 1 1 1 1 1 1 2 2 2 1 2 2 2 2 2 2 1 2 3 4 2 3 5 5 3 2 1 2 1 3 6 5 4 3 2 2 2 3 3 4 4 4 2 1 1 1 1 1 3 3 3 5 4 2 2 2 5 4 4 4 4 4 4 5 5 5 3 1 1
4 3 3 20 19 2 6 15 11 5 4 3 1 1 2 1 1 3 3 1 1 0 1 2 2 0 1 2 2 1 2 2 1 1 1 2 3 3 3 2 1 4 4 5 3 2 2 1 2 5 6 4 3 2 1 3 3 1 2 2 2 2 2 2 4 2 1 1 2 2 6 4 2 4 4 6 5 5 5 4 3 5 5 6 6 2 1 1
6 3 6 18 13 4 8 9 3 2 4 2 2 1 1 1 1 2 2 2 1 0 1 2 1 0 1 1 2 1 2 2 1 1 1 1 3 2 2 2 2 3 1 2 3 1 1 2 0 4 5 5 7 4 1 2 2 4 2 2 1 1 2 0 5 4 2 1 2 1 3 2 1 2 4 5 4 4 4 3 3 5 5 7 6 2 2 1
4 2 6 16 7 4 11 7 3 5 3 0 0 1 1 1 1 2 1 2 1 0 2 1 0 1 1 0 1 1 1 1 2 1 1 1 2 1 3 5 4 2 2 1 2 1 1 3 2 4 5 4 5 4 2 1 4 4 2 3 3 2 2 3 4 1 2 3 1 2 3 1 1 2 4 4 4 3 2 3 5 5 5 7 6 5 4 1
2 3 5 16 10 4 7 4 2 3 1 1 2 3 3 1 1 2 2 2 2 1 2 1 1 1 0 0 0 1 2 1 1 2 2 1 1 1 3 5 4 2 3 0 1 2 1 1 2 3 6 6 6 6 5 4 4 3 3 3 3 4 4 1 1 2 1 2 2 3 3 1 2 3 5 4 4 4 3 4 6 6 6 7 8 8 6 1
3 1 3 14 19 13 5 3 5 4 1 2 4 4 4 2 1 2 0 0 1 1 1 1 1 0 0 1 1 2 2 1 1 2 3 1 2 2 3 5 3 2 1 2 2 2 1 0 2 3 3 5 6 5 6 6 5 2 2 5 5 5 5 2 1 2 1 3 5 3 3 2 2 4 6 6 6 8 7 5 6 6 8 9 9 9 5 3
3 3 2 8 13 11 3 1 4 5 3 3 4 3 3 2 2 1 1 1 1 1 1 1 1 1 1 3 3 2 3 1 1 2 3 2 3 2 3 4 2 3 4 3 1 2 2 1 2 4 3 4 4 7 6 6 5 4 5 7 7 5 4 2 2 2 3 5 5 2 4 7 4 5 7 8 9 10 9 8 8 7 8 10 9 7 3 4
2 3 1 2 4 5 4 4 5 3 2 3 3 2 3 3 3 1 1 1 0 1 1 1 2 3 2 4 4 2 4 3 2 1 1 2 4 3 3 2 3 7 7 3 2 3 4 2 2 3 4 6 6 9 8 4 4 3 6 7 7 7 6 6 4 4 5 5 4 4 8 10 6 5 8 9 9 9 9 10 10 9 10 11 9 5 3 4
3 2 1 1 2 2 3 4 4 5 5 3 3 1 3 4 4 2 1 2 1 1 1 2 4 4 2 2 2 2 5 5 3 1 1 2 3 4 4 1 2 7 6 4 3 3 5 1 1 1 4 8 7 8 5 2 1 2 6 6 7 8 6 6 4 5 5 5 7 8 11 9 3 5 8 9 9 10 9 10 10 9 11 10 7 4 4 6
3 3 1 2 3 3 1 2 3 5 6 4 3 2 3 4 5 2 2 2 4 3 3 3 5 5 3 2 1 2 4 3 3 3 1 2 4 3 3 2 1 4 6 5 4 2 4 1 1 1 4 9 7 5 4 4 2 4 6 7 6 6 5 3 4 6 7 7 8 9 11 7 0 4 7 8 8 8 8 9 9 10 12 10 5 4 5 7
2 3 1 3 4 2 1 2 2 4 4 4 3 2 1 2 3 3 1 1 3 4 4 3 6 6 2 2 3 1 1 2 3 5 2 2 3 1 0 1 2 5 6 4 3 3 3 3 1 3 4 7 5 5 7 5 3 5 7 9 9 8 6 3 5 8 8 7 8 11 12 6 1 4 8 7 7 8 9 11 11 11 11 8 4 5 7 7
4 4 5 6 4 3 3 3 3 4 3 4 2 1 2 2 1 2 2 1 0 2 2 2 5 4 1 2 2 2 4 4 5 7 5 2 2 2 0 1 1 4 6 3 3 4 4 3 2 5 4 6 2 7 11 5 6 7 9 11 10 9 6 4 5 7 6 7 10 11 9 5 3 6 9 8 8 11 12 13 13 12 9 5 5 7 8 7
5 4 4 6 3 3 3 2 3 4 2 2 1 0 2 2 1 1 0 1 1 1 2 2 2 1 2 3 2 1 4 5 5 5 3 2 2 2 1 1 2 1 1 2 2 2 2 2 3 4 3 6 4 8 9 4 5 3 4 6 7 8 6 6 7 8 4 3 6 7 5 4 6 8 10 10 12 13 12 12 13 12 7 4 6 8 7 7
Wind_Direction
49 31 22 21 12 2 356 353 351 352 354 349 347 340 333 327 326 331 329 332 332 335 341 340 345 347 348 344 337 334 321 313 314 344 24 12 346 341 335 331 330 330 332 336 345 355 354 3 5 13 63 89 14 342 31 29 64 56 92 135 222 200 201 192 186 195 184 261 245 218 193 173 237 258 191 28 32 338 288 278 270 273 291 174 303 7 151 156
35 20 14 11 3 358 359 360 2 6 8 4 1 350 343 338 332 336 333 334 335 339 343 342 342 342 346 347 343 347 339 327 344 22 32 356 345 341 334 336 336 333 332 335 345 359 9 334 342 20 58 69 353 12 35 3 70 99 122 159 229 200 213 203 177 191 186 213 217 237 206 185 215 189 125 225 273 323 245 271 295 275 270 356 61 132 150 157
19 12 10 7 1 2 6 8 10 14 23 22 13 3 354 347 343 343 339 337 338 340 341 342 343 342 346 344 346 354 352 20 19 33 14 353 348 341 338 337 335 334 328 328 332 336 322 277 331 44 57 53 331 19 58 20 45 159 132 206 242 213 231 233 185 196 204 164 143 248 182 183 237 201 137 216 252 254 217 234 218 245 248 217 135 144 154 159
8 8 6 4 4 6 9 11 12 17 26 23 15 10 1 353 351 347 343 339 337 339 340 343 345 343 345 346 2 355 7 43 19 347 1 356 352 345 341 333 332 331 316 315 321 319 300 156 76 62 73 336 328 7 132 286 303 156 151 203 230 191 235 245 200 200 202 158 149 169 127 209 246 206 185 176 275 278 236 221 204 221 230 197 168 165 162 162
7 6 3 3 6 8 10 11 12 17 15 9 5 1 357 352 348 345 344 340 337 341 344 348 348 345 344 349 8 352 27 44 331 345 2 357 354 348 343 333 333 335 325 322 323 340 36 99 69 52 63 221 323 24 232 244 107 162 211 206 188 152 229 254 196 191 172 135 130 141 154 218 201 185 194 169 220 252 222 216 209 219 223 179 169 170 164 168
10 4 2 2 6 8 9 7 5 3 354 352 350 345 344 340 337 335 337 339 339 342 346 350 351 348 345 351 9 22 68 71 309 2 360 358 355 348 347 339 337 342 340 330 327 6 59 47 54 77 56 45 197 195 232 307 83 221 273 255 199 183 218 268 168 209 165 130 155 170 195 144 70 275 205 182 224 230 215 200 197 238 231 160 157 159 166 178
8 1 1 1 4 5 4 2 354 345 335 333 332 330 329 327 327 326 329 335 338 343 346 349 352 350 349 348 5 46 78 192 333 6 360 1 353 347 354 349 348 342 337 348 347 0 100 46 30 170 92 0 220 206 239 336 35 184 265 295 229 193 214 256 131 206 164 155 206 177 191 145 165 272 29 229 242 243 256 242 157 253 144 143 148 163 177 182
4 359 358 359 0 359 358 354 348 340 330 324 321 322 319 318 319 317 322 326 332 343 345 347 350 352 356 359 68 30 23 301 353 5 1 1 354 353 353 355 3 355 21 21 2 278 138 65 220 171 110 270 199 169 224 353 6 183 232 277 188 198 249 265 156 150 174 197 204 136 233 226 210 203 318 260 260 267 274 275 147 109 119 142 154 173 179 180
358 355 355 357 358 357 354 349 345 339 333 326 320 317 314 315 314 314 315 314 325 336 342 346 347 352 353 18 81 33 321 346 6 1 358 356 356 357 353 7 17 20 47 32 25 58 99 119 218 178 163 220 166 159 1 302 276 222 218 263 254 261 302 280 187 141 246 222 142 178 278 274 228 174 277 265 274 304 322 11 109 119 127 156 162 176 178 183
349 349 351 353 354 354 351 347 342 336 334 328 322 317 312 310 308 311 308 304 315 325 337 343 340 352 350 20 66 37 293 6 4 355 355 352 353 353 357 15 21 26 41 31 34 47 42 192 195 132 135 122 137 151 328 187 211 208 214 243 244 293 311 256 211 283 321 248 160 196 277 286 280 306 263 258 289 324 12 38 62 106 137 164 160 181 181 183
351 349 349 349 351 350 345 342 339 335 331 326 323 318 311 308 305 305 300 298 306 318 332 339 340 345 343 49 85 163 300 8 2 360 357 351 354 356 8 17 14 19 29 33 33 35 29 193 158 103 113 178 132 36 305 208 154 142 296 283 290 329 315 286 271 278 314 257 174 155 268 283 0 251 237 270 1 4 39 39 39 76 103 132 161 168 141 112
352 349 349 349 348 345 341 339 337 336 333 330 325 317 311 306 302 301 296 293 298 314 325 334 341 329 343 49 111 207 326 18 14 8 360 356 1 1 21 16 2 2 14 31 26 25 22 341 129 93 285 198 160 326 225 182 96 328 23 326 302 347 342 319 334 282 266 191 187 140 294 287 228 234 261 342 358 22 51 43 28 54 68 66 92 65 61 61
349 351 352 349 346 342 340 338 337 337 336 334 327 319 311 303 298 296 295 293 293 309 321 328 332 324 41 27 229 271 358 27 19 4 357 358 4 12 35 5 349 338 347 26 25 25 18 342 126 114 147 110 82 257 97 48 35 297 31 41 311 349 335 307 1 331 164 185 271 94 294 285 254 263 307 341 347 6 21 26 20 25 46 55 58 58 53 34
352 356 353 348 344 341 340 338 338 338 336 333 327 321 312 307 298 282 284 293 294 304 313 321 322 327 53 287 246 30 357 19 12 359 356 355 2 16 1 353 352 332 331 2 10 25 27 46 109 97 84 91 50 245 38 7 15 321 339 37 356 349 290 300 4 108 141 176 13 70 256 275 274 293 336 345 3 26 5 15 20 17 38 52 60 66 57 37
360 356 352 348 344 343 342 341 340 338 335 332 329 322 313 312 299 274 275 287 294 303 307 308 300 352 49 316 21 19 349 8 2 356 356 355 2 2 337 347 13 48 12 25 78 60 57 76 89 70 330 9 47 54 5 345 8 18 321 311 348 179 271 312 343 131 124 351 22 85 234 278 281 292 341 0 29 42 9 11 25 29 45 59 65 70 69 58
0 354 351 349 348 348 345 344 343 340 337 334 332 328 321 325 313 276 277 287 294 299 309 307 273 71 75 328 343 4 6 0 348 351 359 359 1 350 337 345 39 31 25 105 111 93 55 56 75 69 177 17 56 69 22 354 343 3 36 271 285 227 288 325 333 318 16 9 13 127 227 282 275 261 0 13 23 17 1 10 32 40 54 67 70 76 80 77
358 355 355 356 355 351 345 346 346 343 343 342 343 351 1 22 33 350 301 308 320 326 49 78 317 79 69 347 0 349 335 330 336 350 8 0 355 348 348 2 24 1 35 91 87 96 27 42 87 307 49 45 70 79 27 333 305 329 19 263 259 233 263 307 313 323 26 68 263 245 228 258 264 327 5 4 3 355 345 9 52 67 69 75 80 83 84 83
359 360 2 2 358 353 349 348 350 351 351 351 0 25 41 76 72 51 32 36 81 78 76 46 27 86 13 350 354 306 311 318 334 2 6 355 348 351 6 38 2 353 32 45 32 46 4 29 77 354 15 5 44 93 146 250 242 280 284 279 290 282 238 264 285 284 35 55 247 274 266 264 289 340 356 352 348 338 329 40 94 97 90 90 88 88 86 82
2 5 6 4 0 356 351 352 356 358 360 1 7 30 46 92 73 48 45 50 68 63 61 332 18 107 269 322 304 309 318 318 345 12 3 356 349 354 24 36 15 21 43 0 346 24 21 35 44 348 299 291 213 159 207 227 204 228 251 229 264 284 261 245 258 267 267 284 256 254 266 291 334 347 347 345 349 4 23 69 94 100 99 99 91 90 87 81
6 8 6 3 1 357 352 350 357 0 7 8 1 1 21 26 9 358 24 37 73 108 75 256 7 73 307 315 313 331 339 344 31 19 6 358 347 358 24 16 22 43 53 286 308 358 53 42 292 249 247 255 245 213 211 208 179 184 240 246 262 268 278 269 269 302 310 213 275 265 310 348 357 349 345 345 6 32 39 64 79 87 94 95 95 93 87 84
9 8 6 4 360 358 353 341 354 4 12 15 19 48 66 74 38 319 338 12 242 166 38 252 215 267 295 289 320 340 355 22 15 17 9 358 346 355 346 17 35 25 11 291 290 345 44 40 254 248 242 250 263 203 150 109 120 68 259 280 297 252 268 282 279 314 328 163 289 19 55 17 9 0 352 0 27 31 26 57 69 78 86 89 96 95 90 88
10 7 5 3 359 357 352 338 353 4 13 26 45 78 98 134 118 265 279 50 295 236 299 292 325 321 297 272 341 349 32 21 350 358 4 359 6 10 336 43 54 340 340 355 336 357 15 259 259 266 229 188 56 92 101 89 110 45 253 301 302 262 284 306 333 332 359 144 276 14 51 19 10 11 13 18 33 35 26 52 58 67 82 87 96 97 93 87
9 6 4 1 359 354 349 336 345 359 20 41 57 83 95 119 127 129 105 99 349 334 11 14 37 342 338 38 5 360 42 36 327 329 357 1 15 38 40 44 36 337 357 21 68 9 326 266 274 289 180 127 24 39 58 30 1 256 238 277 281 284 313 287 317 331 318 193 255 26 33 0 359 10 29 20 21 42 37 52 56 55 71 81 91 91 89 86
7 6 4 359 356 352 346 328 337 5 33 54 61 74 103 124 137 122 88 91 358 331 19 20 148 18 350 354 357 3 73 48 295 315 356 10 9 23 71 43 20 27 0 51 104 156 270 270 304 38 53 66 304 327 6 337 324 290 228 222 253 278 252 233 291 320 315 330 202 102 28 334 16 21 26 4 12 38 31 45 51 42 53 72 80 75 75 79
3 2 360 357 354 351 346 327 351 13 36 58 51 50 95 111 210 168 88 73 353 325 352 336 134 28 336 328 353 355 167 27 298 296 349 23 13 355 45 45 35 18 306 349 63 304 278 280 306 20 29 49 33 306 281 202 303 313 244 217 232 252 257 261 327 346 353 337 271 105 10 296 7 51 26 350 22 38 24 36 43 34 44 64 74 72 70 72
356 353 353 354 354 352 348 332 3 7 24 42 18 354 303 154 203 172 90 63 13 327 351 353 75 2 344 341 345 352 108 0 305 325 4 25 15 103 55 310 23 25 289 294 2 289 277 334 42 82 55 42 34 306 255 159 88 318 259 197 193 178 243 287 342 358 331 277 273 100 184 266 284 90 59 17 46 47 33 38 38 34 45 59 65 67 69 71
347 346 349 353 355 359 360 329 354 5 40 351 346 344 244 177 140 159 67 45 6 315 340 321 331 6 349 329 338 60 77 317 328 39 19 10 346 75 50 326 350 350 289 56 11 263 230 330 13 52 59 37 13 307 247 129 101 278 247 131 136 261 272 268 264 239 248 275 293 179 154 251 274 182 139 93 71 55 37 35 32 36 48 57 60 62 66 69
343 345 352 355 358 8 20 30 7 30 32 320 320 345 191 181 172 133 82 66 330 331 349 300 322 358 341 332 3 68 294 312 28 353 345 19 2 13 41 356 157 280 301 78 334 280 213 295 325 21 36 18 269 257 182 126 133 268 216 158 238 282 270 238 191 223 299 353 301 270 136 215 270 166 136 125 89 73 47 39 31 37 46 54 62 63 66 71
343 348 357 360 3 11 22 44 30 24 357 330 311 294 197 175 111 70 76 101 296 0 176 314 349 334 344 357 10 32 356 358 47 318 335 30 16 29 70 177 135 156 306 75 244 263 295 249 237 92 53 270 263 270 178 153 263 280 139 169 321 48 38 66 127 168 41 6 266 268 180 191 268 183 168 192 128 136 110 64 40 39 49 53 61 62 64 70
347 355 1 5 11 10 10 27 18 9 357 347 310 240 176 106 63 63 48 353 325 338 260 18 10 327 3 17 347 354 20 0 329 328 350 15 355 21 77 193 103 110 339 9 276 262 320 300 186 87 137 223 290 306 177 177 268 317 32 349 341 23 39 44 72 98 57 296 260 276 242 151 304 212 173 206 174 157 142 100 67 50 52 50 53 57 59 64
353 3 8 15 21 17 13 359 359 359 356 353 313 154 126 42 61 84 57 298 316 341 358 9 347 356 26 36 335 341 9 335 328 8 11 359 358 9 31 22 39 54 1 360 336 311 349 32 66 348 339 99 21 345 319 340 2 32 34 2 334 330 15 28 356 45 78 264 267 295 310 140 238 237 191 323 86 124 125 118 101 72 57 53 52 52 53 60
1 14 22 25 25 22 19 355 350 356 354 357 123 94 83 39 31 82 292 319 338 346 3 327 317 358 3 7 343 330 340 333 349 46 33 13 33 20 27 32 3 12 2 347 337 331 342 1 326 341 12 55 27 345 340 2 32 29 15 30 12 339 0 355 322 334 204 243 252 357 8 244 218 259 331 23 79 95 100 109 107 90 73 63 59 55 52 58
14 32 34 28 24 19 12 359 352 356 355 11 127 59 71 77 30 271 284 325 357 331 331 270 309 340 334 344 352 329 332 336 349 30 47 63 64 29 10 27 38 35 355 330 355 350 335 314 351 15 2 26 41 5 338 328 359 357 356 68 51 8 353 311 293 307 287 273 261 349 0 298 227 14 357 78 92 93 93 94 90 82 75 61 64 67 54 54
39 51 38 26 19 11 3 356 352 354 360 72 92 52 62 73 280 283 305 282 281 330 348 323 318 335 18 17 338 330 0 347 348 14 8 26 47 17 350 1 23 50 346 357 19 15 354 317 340 19 336 351 30 30 299 274 337 333 196 124 91 102 308 282 257 279 294 294 290 303 321 256 235 16 4 90 100 97 91 87 77 73 67 54 62 69 61 57
75 63 36 21 11 2 356 351 348 349 4 75 62 58 76 97 259 255 287 269 297 330 317 331 352 2 10 339 325 5 35 318 342 14 19 31 51 18 0 346 358 28 42 15 343 1 26 273 275 332 326 17 26 303 176 22 355 307 158 83 35 185 185 253 224 222 280 313 308 294 198 190 126 30 56 94 99 95 92 92 85 74 61 58 55 62 78 69
122 72 31 17 3 356 352 347 346 349 58 87 63 56 116 183 238 171 225 291 355 320 319 350 27 24 343 318 330 4 27 288 334 5 15 49 70 356 9 305 333 19 44 52 307 347 11 279 288 350 1 65 98 262 2 21 331 333 42 357 261 183 141 217 282 326 36 335 294 285 157 174 63 120 158 135 130 127 127 114 98 87 66 57 44 57 99 87
126 120 29 12 360 354 351 351 1 40 84 81 77 95 196 199 159 171 237 331 305 277 14 16 13 11 337 315 316 331 347 336 342 7 354 11 48 9 9 349 352 20 13 6 270 282 273 282 308 5 348 294 162 104 21 22 68 44 345 278 263 97 94 103 303 347 14 296 278 321 249 247 218 216 186 171 175 174 161 130 99 74 54 45 27 49 136 100
74 154 51 7 357 354 357 6 45 82 76 67 74 116 173 13 105 214 228 38 308 20 53 39 336 14 15 309 299 310 340 351 348 8 0 347 29 50 35 357 16 44 350 342 312 283 117 291 305 349 293 295 340 68 13 341 16 58 284 286 24 53 351 14 22 335 340 304 290 312 299 246 208 206 190 185 188 181 163 120 77 36 26 28 3 329 172 120
35 50 56 356 354 1 21 38 70 66 64 71 76 112 146 340 271 234 201 98 94 64 58 23 304 4 1 233 283 304 343 1 340 356 18 6 19 53 59 356 348 4 346 9 79 277 53 354 293 287 288 314 358 39 2 328 338 6 8 355 33 131 200 304 11 215 299 295 291 317 322 287 248 235 190 179 174 163 148 95 63 26 5 350 328 312 222 158
31 66 348 348 353 7 56 57 62 49 59 98 145 147 36 334 283 322 7 35 99 89 45 190 220 338 316 313 321 314 344 0 337 352 3 350 9 36 42 33 338 329 334 23 71 333 2 83 264 291 324 353 7 14 355 300 306 351 22 12 353 337 292 300 294 136 128 282 282 321 309 279 307 342 125 118 97 101 93 68 50 13 348 331 321 310 267 209
45 76 315 344 350 328 61 52 53 49 75 85 101 109 38 42 330 355 10 23 45 176 164 153 161 281 304 331 337 307 326 339 356 5 323 355 29 29 28 51 324 315 346 24 36 9 11 89 247 297 333 347 297 277 254 240 228 146 62 40 349 322 10 357 309 321 82 207 201 276 293 281 328 356 68 82 76 79 68 57 24 356 347 341 337 319 278 271
56 85 318 347 3 91 70 52 25 47 88 64 45 93 22 59 60 355 7 33 35 320 52 102 125 87 172 280 302 293 335 322 321 15 338 10 38 14 342 357 299 283 11 10 320 278 127 96 13 287 291 293 292 301 307 235 153 115 83 55 71 25 57 32 281 298 318 280 175 223 279 290 342 5 59 67 82 92 76 57 14 352 351 351 346 318 293 356
74 160 339 358 7 107 68 57 337 23 62 272 88 103 358 54 58 342 355 18 13 20 20 24 320 18 96 281 322 325 337 270 227 17 357 355 33 318 309 325 306 301 55 3 313 333 92 73 25 293 291 303 314 333 358 57 73 62 10 37 66 2 353 211 220 277 304 290 328 292 276 1 69 68 66 66 77 80 67 35 10 352 346 351 348 324 309 5
114 198 347 12 25 99 80 88 124 50 10 303 49 28 354 45 81 9 0 357 2 69 47 1 338 8 2 99 45 259 314 331 281 3 40 84 31 303 321 335 333 23 60 88 296 345 355 24 25 353 342 342 347 352 341 346 32 27 325 6 38 5 350 286 214 38 285 262 335 300 281 19 110 93 60 60 51 21 1 15 9 353 345 345 342 329 319 38
69 141 304 14 39 66 92 152 140 123 130 50 51 16 358 23 56 19 59 13 356 143 110 342 325 21 271 1 1 307 334 17 288 348 35 40 312 317 345 340 354 47 345 254 266 319 305 200 75 68 12 335 330 324 324 335 346 354 356 2 12 10 356 323 305 25 311 321 346 311 286 344 86 82 42 29 16 357 349 359 358 347 344 338 331 326 332 68
75 60 320 354 29 54 73 121 101 108 127 90 57 15 14 13 311 292 152 119 13 89 78 331 307 30 22 22 18 328 322 326 288 2 25 327 293 291 313 318 0 9 323 311 8 62 95 21 68 122 181 256 266 271 301 339 324 323 355 355 355 359 2 57 91 31 319 315 322 300 321 343 11 42 17 3 359 351 344 346 342 338 339 334 325 328 10 73
97 83 43 339 4 34 40 23 40 72 116 114 91 15 357 336 315 319 138 141 21 37 60 48 42 36 357 5 23 317 304 335 0 53 41 297 280 285 298 322 17 341 328 337 18 67 84 3 15 127 220 244 251 275 301 328 286 307 0 354 349 355 17 55 49 340 331 323 306 327 344 341 355 19 1 350 348 344 340 339 336 332 331 327 324 337 38 37
72 132 185 143 59 49 36 20 46 64 54 73 113 65 357 356 1 0 310 329 12 38 32 23 26 26 331 318 21 340 327 349 8 20 1 314 318 329 333 20 24 342 344 7 1 75 102 353 324 114 272 276 282 291 307 327 283 46 29 1 354 358 11 37 10 327 346 325 292 311 328 325 338 2 347 342 340 335 334 332 327 323 323 324 328 354 15 3
79 111 326 17 88 132 155 358 68 68 45 53 84 56 36 28 14 340 273 350 357 355 36 11 334 340 326 261 119 30 347 357 335 301 284 343 348 4 357 343 340 354 18 27 357 86 115 307 286 103 302 295 301 313 329 347 16 65 39 10 6 356 341 352 341 339 345 313 285 303 315 305 3 0 336 334 332 325 321 320 319 322 325 328 337 356 354 354
118 136 134 54 68 90 27 14 56 63 39 43 60 42 54 40 353 319 260 65 359 339 23 6 308 309 313 191 141 75 301 188 245 260 222 12 339 328 59 288 291 351 15 32 340 351 37 340 306 81 341 303 319 354 338 341 68 84 35 14 6 353 342 341 346 346 339 310 296 307 307 293 96 9 332 322 323 321 322 324 326 328 329 332 343 351 350 352
92 120 133 105 61 0 9 24 59 73 35 11 37 39 3 358 334 291 267 227 162 320 340 316 295 301 7 130 144 253 252 203 219 240 221 205 247 216 186 194 185 349 358 24 350 355 34 359 346 55 6 292 318 3 337 349 97 83 33 15 356 344 340 331 334 332 313 296 299 304 305 308 348 339 323 319 326 329 330 331 327 325 332 348 354 349 349 348
90 83 100 102 75 354 9 15 33 73 67 341 353 253 309 313 278 191 303 302 209 227 251 233 240 297 348 356 5 250 234 213 218 238 222 177 158 109 81 132 122 34 338 57 25 6 72 21 341 40 357 290 320 347 331 6 69 40 14 8 339 326 322 316 320 317 298 277 294 297 303 322 328 324 321 324 330 333 334 329 322 322 337 12 359 345 344 341